GFSNE_prec_snow_180.txt.gz
Snowfall_Accumulation
0.0 0.1 0.0 0.0 0.0 0.1 0.3 0.5 5.0 4.3 0.5 0.0 0.0 0.0 0.0 0.0 0.0 0.0 0.0 0.0 0.0 0.0 0.0 0.0 0.0 0.0 0.0 0.0 0.0 0.0 0.0 0.0 0.0 0.0 0.0 0.0 0.0 0.0
0.0 0.0 0.0 0.0 0.0 0.0 0.0 0.1 1.1 2.1 1.4 0.0 0.0 0.0 0.0 0.0 0.0 0.0 0.0 0.0 0.0 0.1 0.0 0.0 0.0 0.1 0.1 0.0 0.0 0.0 0.0 0.0 0.0 0.0 0.0 0.0 0.0 0.0
0.2 0.4 0.3 0.0 0.1 0.0 0.0 0.1 0.1 0.4 0.5 0.0 0.0 0.0 0.0 0.0 0.0 0.0 0.0 0.0 0.0 0.0 0.1 0.1 0.0 0.1 0.1 0.0 0.1 0.1 0.0 0.0 0.0 0.0 0.0 0.0 0.0 0.0
0.5 1.0 1.6 1.2 1.3 0.3 0.2 0.0 0.2 0.2 0.4 0.1 0.0 0.0 0.1 0.0 0.0 0.0 0.0 0.0 0.0 0.0 0.0 0.0 0.1 0.0 0.1 0.2 0.1 0.1 0.1 0.0 0.0 0.0 0.0 0.0 0.0 0.0
3.4 2.0 2.3 1.9 3.5 2.6 2.0 1.0 0.2 0.6 0.9 0.2 0.1 0.0 0.3 0.1 0.2 0.0 0.0 0.0 0.0 0.0 0.0 0.0 0.0 0.1 0.1 0.0 0.1 0.0 0.1 0.1 0.0 0.0 0.0 0.0 0.0 0.1
1.8 2.1 2.4 1.5 3.7 4.1 3.6 4.3 3.2 2.1 1.3 1.4 0.5 0.6 0.5 0.9 1.5 0.8 0.9 1.3 0.5 0.3 0.5 0.1 0.1 0.1 0.0 0.1 0.3 0.0 0.0 0.1 0.1 0.1 0.0 0.0 0.0 0.0
0.3 0.3 0.5 0.4 1.0 1.8 2.6 3.6 2.5 4.4 3.8 3.0 1.9 0.8 1.0 0.5 2.5 3.6 3.5 3.4 1.8 1.5 0.9 0.7 0.0 0.0 0.5 0.4 0.0 0.1 0.0 0.2 0.2 0.1 0.1 0.0 0.0 0.0
4.7 3.1 1.7 0.3 3.6 0.7 0.5 1.5 2.7 4.4 4.4 3.9 4.5 4.7 3.5 3.0 2.2 4.8 5.2 3.9 4.1 4.8 3.9 2.9 0.6 1.0 0.5 1.7 1.1 1.1 0.2 0.3 0.3 0.2 0.2 0.0 0.1 0.8
6.2 6.6 5.3 5.3 4.0 2.9 3.1 1.9 1.6 1.0 3.2 3.7 3.7 4.4 5.4 5.3 4.8 3.2 4.4 8.5 7.4 3.9 4.1 5.8 4.1 1.6 1.6 1.4 2.2 0.5 1.0 0.2 0.3 0.5 0.7 0.2 0.1 0.0
3.2 2.9 1.4 1.4 3.3 2.9 4.8 4.9 2.6 2.6 3.0 4.9 7.2 7.1 7.5 8.1 6.0 7.1 4.7 6.2 6.1 7.7 4.8 5.5 9.8 12.0 8.2 9.4 3.7 1.9 2.3 0.8 1.4 1.7 0.6 0.7 0.6 0.1
0.7 0.7 0.7 0.7 0.6 1.2 0.7 0.8 1.0 1.3 1.3 2.2 3.8 3.7 5.3 4.0 6.1 8.2 10.2 11.2 12.4 9.4 6.0 8.7 9.3 11.3 12.0 7.2 12.0 8.2 8.7 9.4 9.7 3.1 4.0 4.1 4.1 3.7
0.2 0.3 0.2 0.5 1.3 1.2 1.8 1.6 1.6 1.1 1.6 1.5 1.4 0.8 2.0 1.8 1.5 2.1 4.2 7.6 9.1 9.6 8.0 10.4 9.7 11.3 17.5 19.6 17.9 14.7 12.0 15.1 13.7 12.0 8.7 8.6 5.7 4.8
0.1 0.1 0.1 2.4 2.2 1.2 0.9 1.0 1.6 1.8 1.3 1.0 0.9 1.8 1.2 1.4 1.7 1.3 2.1 3.9 4.7 4.1 6.0 14.1 17.1 15.8 19.2 17.2 13.8 11.0 10.3 11.7 13.0 9.3 8.2 8.5 6.5 4.1
6.0 6.7 6.5 3.8 5.3 3.6 3.0 4.0 4.0 5.1 4.9 3.4 3.1 4.5 10.9 7.0 7.9 7.7 9.4 9.7 8.4 9.9 10.5 10.2 13.2 12.9 12.5 11.7 9.1 7.3 5.6 5.9 5.9 8.0 10.4 8.3 8.3 11.1
10.2 10.1 9.5 9.3 10.2 9.9 11.0 10.9 10.9 12.5 12.5 15.9 22.9 21.5 20.0 17.2 15.2 12.8 10.9 10.3 11.1 7.9 10.0 10.6 10.6 9.8 9.3 11.1 9.1 6.3 8.5 5.7 3.9 4.2 7.2 8.8 10.4 10.4
5.1 5.1 5.5 6.2 6.0 10.3 12.1 9.2 12.5 20.2 21.3 22.4 21.4 21.4 19.5 17.9 16.8 16.4 14.8 15.4 15.2 13.8 13.6 13.4 13.1 14.0 14.9 13.7 12.9 11.3 9.8 10.0 7.4 8.3 10.1 12.2 14.1 13.8
6.7 12.9 17.1 11.4 14.9 16.9 16.0 16.3 16.1 16.4 16.1 15.7 14.9 14.4 12.7 12.1 11.6 10.8 11.0 10.2 10.6 8.9 8.8 10.4 9.9 10.3 9.8 10.3 11.7 10.1 9.6 9.4 9.4 11.2 9.2 12.4 14.1 14.0
14.5 14.6 14.5 14.1 13.4 12.8 12.7 11.9 10.1 10.0 8.9 8.1 7.3 6.6 6.6 6.2 5.5 4.7 4.7 5.4 5.6 4.7 4.6 5.1 7.1 6.7 6.7 6.2 6.6 8.5 7.0 6.6 6.5 6.7 6.8 9.8 11.7 14.9
10.6 8.0 9.7 9.0 7.6 6.5 5.9 5.5 5.4 4.6 3.2 3.6 3.8 3.1 2.1 1.7 1.9 1.8 1.5 1.3 1.6 1.4 1.6 2.8 3.5 5.3 6.4 6.0 4.5 3.4 6.3 4.9 4.4 4.7 4.0 6.1 9.1 10.2
5.2 4.7 5.0 4.1 3.1 2.7 3.0 2.8 2.7 1.6 1.8 1.0 1.3 1.2 1.5 1.9 1.7 1.2 0.9 1.3 1.1 0.6 0.6 0.5 0.6 1.7 4.9 7.4 6.8 2.4 2.5 6.5 4.3 3.5 3.3 4.4 3.9 5.4
3.4 3.3 2.9 3.0 3.1 2.7 2.6 2.7 2.9 2.9 1.8 3.3 2.6 3.1 3.3 3.4 2.7 2.0 2.6 2.0 1.9 1.7 1.1 0.3 0.1 0.8 1.5 2.4 5.0 2.8 1.6 1.5 1.8 2.2 3.6 4.0 2.9 4.0
2.9 2.7 1.7 2.4 2.1 1.9 2.4 2.4 2.5 2.1 2.3 2.7 2.2 1.6 2.0 2.0 2.2 1.5 1.6 1.7 1.2 1.3 0.6 0.3 0.3 0.9 1.7 2.3 2.8 2.7 1.5 2.1 0.9 1.1 2.1 3.2 6.0 7.6
2.2 1.5 1.6 1.6 1.5 1.6 1.6 1.8 1.7 1.6 1.8 2.6 2.2 1.8 1.9 2.2 1.7 1.7 1.3 1.3 1.3 0.9 0.7 1.1 1.2 1.1 1.3 0.9 1.2 3.0 1.5 2.2 1.4 2.4 2.7 1.7 2.9 2.1

GFSNE_prec_snow_183.txt.gz
Snowfall_Accumulation
0.0 0.1 0.0 0.0 0.0 0.1 0.3 0.5 5.0 4.3 0.5 0.0 0.0 0.0 0.0 0.0 0.0 0.0 0.0 0.0 0.0 0.0 0.0 0.0 0.0 0.1 0.1 0.0 0.0 0.0 0.0 0.0 0.0 0.0 0.0 0.0 0.0 0.0
0.0 0.0 0.0 0.0 0.0 0.0 0.0 0.1 1.1 2.1 1.4 0.0 0.0 0.0 0.0 0.0 0.0 0.0 0.0 0.0 0.0 0.1 0.0 0.0 0.0 0.1 0.2 0.1 0.1 0.0 0.0 0.0 0.0 0.0 0.0 0.0 0.0 0.0
0.2 0.4 0.3 0.0 0.1 0.0 0.0 0.1 0.1 0.4 0.5 0.0 0.0 0.0 0.0 0.0 0.0 0.0 0.0 0.0 0.0 0.0 0.1 0.1 0.1 0.1 0.1 0.1 0.2 0.2 0.1 0.1 0.0 0.0 0.0 0.0 0.0 0.0
0.5 1.0 1.6 1.2 1.3 0.3 0.2 0.0 0.2 0.2 0.4 0.1 0.0 0.0 0.1 0.0 0.0 0.0 0.0 0.0 0.0 0.0 0.0 0.0 0.2 0.1 0.1 0.2 0.1 0.2 0.2 0.1 0.1 0.1 0.0 0.0 0.0 0.0
3.4 2.0 2.3 1.9 3.5 2.6 2.0 1.0 0.2 0.6 0.9 0.2 0.1 0.0 0.3 0.1 0.2 0.0 0.0 0.0 0.0 0.0 0.0 0.0 0.0 0.1 0.1 0.0 0.1 0.1 0.2 0.2 0.1 0.1 0.1 0.0 0.0 0.1
1.8 2.1 2.4 1.5 3.7 4.1 3.6 4.3 3.2 2.1 1.3 1.4 0.5 0.6 0.5 0.9 1.5 0.8 0.9 1.3 0.5 0.3 0.5 0.1 0.1 0.1 0.0 0.1 0.3 0.0 0.0 0.1 0.1 0.2 0.1 0.1 0.0 0.0
0.3 0.3 0.5 0.4 1.0 1.8 2.6 3.6 2.5 4.4 3.8 3.0 1.9 0.8 1.0 0.5 2.5 3.6 3.5 3.4 1.8 1.5 0.9 0.7 0.0 0.0 0.5 0.4 0.0 0.1 0.0 0.2 0.3 0.1 0.2 0.1 0.0 0.0
4.7 3.1 1.7 0.3 3.6 0.7 0.5 1.5 2.7 4.4 4.4 3.9 4.5 4.7 3.5 3.0 2.2 4.8 5.2 3.9 4.1 4.8 3.9 2.9 0.6 1.0 0.5 1.7 1.1 1.1 0.2 0.3 0.4 0.2 0.2 0.0 0.1 0.8
6.2 6.6 5.3 5.3 4.0 2.9 3.1 1.9 1.6 1.0 3.2 3.7 3.7 4.4 5.4 5.3 4.8 3.2 4.4 8.5 7.4 3.9 4.1 5.8 4.1 1.6 1.6 1.4 2.2 0.5 1.0 0.2 0.3 0.5 0.8 0.2 0.1 0.0
3.2 2.9 1.4 1.4 3.3 2.9 4.8 4.9 2.6 2.6 3.0 4.9 7.2 7.1 7.5 8.1 6.0 7.1 4.7 6.2 6.1 7.7 4.8 5.5 9.8 12.0 8.2 9.4 3.7 1.9 2.3 0.8 1.4 1.7 0.6 0.7 0.6 0.1
0.7 0.7 0.7 0.7 0.6 1.2 0.7 0.8 1.0 1.3 1.3 2.2 3.8 3.7 5.3 4.0 6.1 8.2 10.2 11.2 12.4 9.4 6.0 8.7 9.3 11.3 12.0 7.2 12.0 8.2 8.7 9.4 9.7 3.1 4.0 4.1 4.1 3.7
0.2 0.3 0.2 0.5 1.3 1.2 1.8 1.6 1.6 1.1 1.6 1.5 1.4 0.8 2.0 1.8 1.5 2.1 4.2 7.6 9.1 9.6 8.0 10.4 9.7 11.3 17.5 19.6 17.9 14.7 12.0 15.1 13.7 12.0 8.7 8.6 5.7 4.8
0.1 0.1 0.1 2.4 2.2 1.2 0.9 1.0 1.6 1.8 1.3 1.0 0.9 1.8 1.2 1.4 1.7 1.3 2.1 3.9 4.7 4.1 6.0 14.1 17.1 15.8 19.2 17.2 13.8 11.0 10.3 11.7 13.0 9.3 8.2 8.5 6.5 4.1
6.0 6.7 6.5 3.8 5.3 3.6 3.0 4.0 4.0 5.1 4.9 3.4 3.1 4.5 10.9 7.0 7.9 7.7 9.4 9.7 8.4 9.9 10.5 10.2 13.2 12.9 12.5 11.7 9.1 7.3 5.6 5.9 5.9 8.0 10.4 8.3 8.3 11.1
10.2 10.1 9.5 9.3 10.2 9.9 11.0 10.9 10.9 12.5 12.5 15.9 22.9 21.5 20.0 17.2 15.2 12.8 10.9 10.3 11.1 7.9 10.0 10.6 10.6 9.8 9.3 11.1 9.1 6.3 8.5 5.7 3.9 4.2 7.2 8.8 10.4 10.4
5.1 5.1 5.5 6.2 6.0 10.3 12.1 9.2 12.5 20.2 21.3 22.4 21.4 21.4 19.5 17.9 16.8 16.4 14.8 15.4 15.2 13.8 13.6 13.4 13.1 14.0 14.9 13.7 12.9 11.3 9.8 10.0 7.4 8.3 10.1 12.2 14.1 13.8
6.7 12.9 17.1 11.4 14.9 16.9 16.0 16.3 16.1 16.4 16.1 15.7 14.9 14.4 12.7 12.1 11.6 10.8 11.0 10.2 10.6 8.9 8.8 10.4 9.9 10.3 9.8 10.3 11.7 10.1 9.6 9.4 9.4 11.2 9.2 12.4 14.1 14.0
14.5 14.6 14.5 14.1 13.4 12.8 12.7 11.9 10.1 10.0 8.9 8.1 7.3 6.6 6.6 6.2 5.5 4.7 4.7 5.4 5.6 4.7 4.6 5.1 7.1 6.7 6.7 6.2 6.6 8.5 7.0 6.6 6.5 6.7 6.8 9.8 11.7 14.9
10.6 8.0 9.7 9.0 7.6 6.5 5.9 5.5 5.4 4.6 3.2 3.6 3.8 3.1 2.1 1.7 1.9 1.8 1.5 1.3 1.6 1.4 1.6 2.8 3.5 5.3 6.4 6.0 4.5 3.4 6.3 4.9 4.4 4.7 4.0 6.1 9.1 10.2
5.2 4.7 5.0 4.1 3.1 2.7 3.0 2.8 2.7 1.6 1.8 1.0 1.3 1.2 1.5 1.9 1.7 1.2 0.9 1.3 1.1 0.6 0.6 0.5 0.6 1.7 4.9 7.4 6.8 2.4 2.5 6.5 4.3 3.5 3.3 4.4 3.9 5.4
3.4 3.3 2.9 3.0 3.1 2.7 2.6 2.7 2.9 2.9 1.8 3.3 2.6 3.1 3.3 3.4 2.7 2.0 2.6 2.0 1.9 1.7 1.1 0.3 0.1 0.8 1.5 2.4 5.0 2.8 1.6 1.5 1.8 2.2 3.6 4.0 2.9 4.0
2.9 2.7 1.7 2.4 2.1 1.9 2.4 2.4 2.5 2.1 2.3 2.7 2.2 1.6 2.0 2.0 2.2 1.5 1.6 1.7 1.2 1.3 0.6 0.3 0.3 0.9 1.7 2.3 2.8 2.7 1.5 2.1 0.9 1.1 2.1 3.2 6.1 7.7
2.2 1.5 1.6 1.6 1.5 1.6 1.6 1.8 1.7 1.6 1.8 2.6 2.2 1.8 1.9 2.2 1.7 1.7 1.3 1.3 1.3 0.9 0.7 1.1 1.2 1.1 1.3 0.9 1.2 3.0 1.5 2.2 1.4 2.4 2.7 1.7 2.9 2.1

GFSNE_prec_snow_189.txt.gz
Snowfall_Accumulation
0.0 0.1 0.0 0.0 0.0 0.1 0.3 0.5 5.0 4.3 0.5 0.0 0.0 0.0 0.0 0.0 0.0 0.0 0.0 0.0 0.0 0.0 0.0 0.1 0.1 0.2 0.1 0.1 0.1 0.1 0.0 0.0 0.0 0.0 0.0 0.0 0.0 0.0
0.0 0.0 0.0 0.0 0.0 0.0 0.0 0.1 1.1 2.1 1.4 0.0 0.0 0.0 0.0 0.0 0.0 0.0 0.0 0.0 0.0 0.1 0.0 0.0 0.1 0.2 0.2 0.1 0.2 0.1 0.3 0.1 0.0 0.0 0.0 0.0 0.0 0.0
0.2 0.4 0.3 0.0 0.1 0.0 0.0 0.1 0.1 0.4 0.5 0.0 0.0 0.0 0.0 0.0 0.0 0.0 0.0 0.0 0.0 0.0 0.1 0.1 0.1 0.2 0.1 0.1 0.2 0.2 0.2 0.3 0.2 0.2 0.1 0.2 0.0 0.0
0.5 1.0 1.6 1.2 1.3 0.3 0.2 0.0 0.2 0.2 0.4 0.1 0.0 0.0 0.1 0.0 0.0 0.0 0.0 0.0 0.0 0.0 0.0 0.0 0.2 0.1 0.1 0.2 0.1 0.2 0.3 0.2 0.3 0.2 0.1 0.1 0.1 0.1
3.4 2.0 2.3 1.9 3.5 2.6 2.0 1.0 0.2 0.6 0.9 0.2 0.1 0.0 0.3 0.1 0.2 0.0 0.0 0.0 0.0 0.0 0.0 0.0 0.0 0.1 0.1 0.0 0.1 0.1 0.2 0.3 0.2 0.2 0.2 0.1 0.1 0.2
1.8 2.1 2.4 1.5 3.7 4.1 3.6 4.3 3.2 2.1 1.3 1.4 0.5 0.6 0.5 0.9 1.5 0.8 0.9 1.3 0.5 0.3 0.5 0.1 0.1 0.1 0.0 0.1 0.3 0.0 0.0 0.1 0.2 0.2 0.3 0.2 0.0 0.1
0.3 0.3 0.5 0.4 1.0 1.8 2.6 3.6 2.5 4.4 3.8 3.0 1.9 0.8 1.0 0.5 2.5 3.6 3.5 3.4 1.8 1.5 0.9 0.7 0.0 0.0 0.5 0.4 0.0 0.1 0.0 0.2 0.3 0.2 0.3 0.1 0.1 0.0
4.7 3.1 1.7 0.3 3.6 0.7 0.5 1.5 2.7 4.4 4.4 3.9 4.5 4.7 3.5 3.0 2.2 4.8 5.2 3.9 4.1 4.8 3.9 2.9 0.6 1.0 0.5 1.7 1.1 1.1 0.2 0.3 0.4 0.2 0.3 0.1 0.1 0.8
6.2 6.6 5.3 5.3 4.0 2.9 3.1 1.9 1.6 1.0 3.2 3.7 3.7 4.4 5.4 5.3 4.8 3.2 4.4 8.5 7.4 3.9 4.1 5.8 4.1 1.6 1.6 1.4 2.2 0.5 1.0 0.2 0.3 0.5 0.8 0.3 0.1 0.0
3.2 2.9 1.4 1.4 3.3 2.9 4.8 4.9 2.6 2.6 3.0 4.9 7.2 7.1 7.5 8.1 6.0 7.1 4.7 6.2 6.1 7.7 4.8 5.5 9.8 12.0 8.2 9.4 3.7 1.9 2.3 0.8 1.4 1.7 0.6 0.7 0.6 0.1
0.7 0.7 0.7 0.7 0.6 1.2 0.7 0.8 1.0 1.3 1.3 2.2 3.8 3.7 5.3 4.0 6.1 8.2 10.2 11.2 12.4 9.4 6.0 8.7 9.3 11.3 12.0 7.2 12.0 8.2 8.7 9.4 9.7 3.1 4.0 4.1 4.1 3.7
0.2 0.3 0.2 0.5 1.3 1.2 1.8 1.6 1.6 1.1 1.6 1.5 1.4 0.8 2.0 1.8 1.5 2.1 4.2 7.6 9.1 9.6 8.0 10.4 9.7 11.3 17.5 19.6 17.9 14.7 12.0 15.1 13.7 12.0 8.7 8.6 5.7 4.8
0.1 0.1 0.1 2.4 2.2 1.2 0.9 1.0 1.6 1.8 1.3 1.0 0.9 1.8 1.2 1.4 1.7 1.3 2.1 3.9 4.7 4.1 6.0 14.1 17.1 15.8 19.2 17.2 13.8 11.0 10.3 11.7 13.0 9.3 8.2 8.5 6.5 4.2
6.0 6.7 6.5 3.8 5.3 3.6 3.0 4.0 4.0 5.1 4.9 3.4 3.1 4.5 10.9 7.0 7.9 7.7 9.4 9.7 8.4 9.9 10.5 10.2 13.2 12.9 12.5 11.7 9.1 7.3 5.6 5.9 5.9 8.0 10.4 8.3 8.3 11.1
10.2 10.1 9.5 9.3 10.2 9.9 11.0 10.9 10.9 12.5 12.5 15.9 22.9 21.5 20.0 17.2 15.2 12.8 10.9 10.3 11.1 7.9 10.0 10.6 10.6 9.8 9.3 11.1 9.1 6.3 8.5 5.7 3.9 4.2 7.2 8.8 10.4 10.4
5.1 5.1 5.5 6.2 6.0 10.3 12.1 9.2 12.5 20.2 21.3 22.4 21.4 21.4 19.5 17.9 16.8 16.4 14.8 15.4 15.2 13.8 13.6 13.4 13.1 14.0 14.9 13.7 12.9 11.3 9.8 10.0 7.4 8.3 10.1 12.2 14.1 13.8
6.7 12.9 17.1 11.4 14.9 16.9 16.0 16.3 16.1 16.4 16.1 15.7 14.9 14.4 12.7 12.1 11.6 10.8 11.0 10.2 10.6 8.9 8.8 10.4 9.9 10.3 9.8 10.3 11.7 10.1 9.6 9.4 9.4 11.2 9.2 12.4 14.1 14.0
14.5 14.6 14.5 14.1 13.4 12.8 12.7 11.9 10.1 10.0 8.9 8.1 7.3 6.6 6.6 6.2 5.5 4.7 4.7 5.4 5.6 4.7 4.6 5.1 7.1 6.7 6.7 6.2 6.6 8.5 7.0 6.6 6.5 6.7 6.8 9.8 11.7 14.9
10.6 8.0 9.7 9.0 7.6 6.5 5.9 5.5 5.4 4.6 3.2 3.6 3.8 3.1 2.1 1.7 1.9 1.8 1.5 1.3 1.6 1.4 1.6 2.8 3.5 5.3 6.4 6.0 4.5 3.4 6.3 4.9 4.4 4.7 4.0 6.1 9.1 10.2
5.2 4.7 5.0 4.1 3.1 2.7 3.0 2.8 2.7 1.6 1.8 1.0 1.3 1.2 1.5 1.9 1.7 1.2 0.9 1.3 1.1 0.6 0.6 0.5 0.6 1.7 4.9 7.4 6.8 2.4 2.5 6.5 4.3 3.5 3.3 4.4 3.9 5.4
3.4 3.3 2.9 3.0 3.1 2.7 2.6 2.7 2.9 2.9 1.8 3.3 2.6 3.1 3.3 3.4 2.7 2.0 2.6 2.0 1.9 1.7 1.1 0.3 0.1 0.8 1.5 2.4 5.0 2.8 1.6 1.5 1.8 2.2 3.6 4.0 2.9 4.0
2.9 2.7 1.7 2.4 2.1 1.9 2.4 2.4 2.5 2.1 2.3 2.7 2.2 1.6 2.0 2.0 2.2 1.5 1.6 1.7 1.2 1.3 0.6 0.3 0.3 0.9 1.7 2.3 2.8 2.7 1.5 2.1 0.9 1.1 2.1 3.2 6.1 7.7
2.2 1.5 1.6 1.6 1.5 1.6 1.6 1.8 1.7 1.6 1.8 2.6 2.2 1.8 1.9 2.2 1.7 1.7 1.3 1.3 1.3 0.9 0.7 1.1 1.2 1.1 1.3 0.9 1.2 3.0 1.5 2.2 1.4 2.4 2.7 1.7 2.9 2.1

GFSNE_prec_snow_192.txt.gz
Snowfall_Accumulation
0.0 0.1 0.0 0.0 0.0 0.1 0.3 0.5 5.0 4.3 0.5 0.0 0.0 0.0 0.0 0.0 0.0 0.0 0.0 0.0 0.0 0.0 0.0 0.1 0.1 0.2 0.1 0.1 0.1 0.1 0.0 0.0 0.0 0.0 0.0 0.0 0.0 0.0
0.0 0.0 0.0 0.0 0.0 0.0 0.0 0.1 1.1 2.1 1.4 0.0 0.0 0.0 0.0 0.0 0.0 0.0 0.0 0.0 0.0 0.1 0.0 0.0 0.1 0.2 0.2 0.1 0.2 0.1 0.3 0.1 0.1 0.0 0.0 0.0 0.0 0.0
0.2 0.4 0.3 0.0 0.1 0.0 0.0 0.1 0.1 0.4 0.5 0.0 0.0 0.0 0.0 0.0 0.0 0.0 0.0 0.0 0.0 0.0 0.1 0.1 0.1 0.2 0.1 0.1 0.2 0.2 0.2 0.3 0.2 0.2 0.1 0.3 0.1 0.0
0.5 1.0 1.6 1.2 1.3 0.3 0.2 0.0 0.2 0.2 0.4 0.1 0.0 0.0 0.1 0.0 0.0 0.0 0.0 0.0 0.0 0.0 0.0 0.0 0.2 0.1 0.1 0.2 0.1 0.2 0.3 0.2 0.3 0.2 0.2 0.2 0.2 0.2
3.4 2.0 2.3 1.9 3.5 2.6 2.0 1.0 0.2 0.6 0.9 0.2 0.1 0.0 0.3 0.1 0.2 0.0 0.0 0.0 0.0 0.0 0.0 0.0 0.0 0.1 0.1 0.0 0.1 0.1 0.2 0.3 0.2 0.2 0.2 0.1 0.1 0.3
1.8 2.1 2.4 1.5 3.7 4.1 3.6 4.3 3.2 2.1 1.3 1.4 0.5 0.6 0.5 0.9 1.5 0.8 0.9 1.3 0.5 0.3 0.5 0.1 0.1 0.1 0.0 0.1 0.3 0.0 0.0 0.1 0.2 0.2 0.3 0.2 0.0 0.1
0.3 0.3 0.5 0.4 1.0 1.8 2.6 3.6 2.5 4.4 3.8 3.0 1.9 0.8 1.0 0.5 2.5 3.6 3.5 3.4 1.8 1.5 0.9 0.7 0.0 0.0 0.5 0.4 0.0 0.1 0.0 0.2 0.3 0.2 0.3 0.1 0.1 0.0
4.7 3.1 1.7 0.3 3.6 0.7 0.5 1.5 2.7 4.4 4.4 3.9 4.5 4.7 3.5 3.0 2.2 4.8 5.2 3.9 4.1 4.8 3.9 2.9 0.6 1.0 0.5 1.7 1.1 1.1 0.2 0.3 0.4 0.2 0.3 0.1 0.1 0.8
6.2 6.6 5.3 5.3 4.0 2.9 3.1 1.9 1.6 1.0 3.2 3.7 3.7 4.4 5.4 5.3 4.8 3.2 4.4 8.5 7.4 3.9 4.1 5.8 4.1 1.6 1.6 1.4 2.2 0.5 1.0 0.2 0.3 0.5 0.8 0.3 0.1 0.0
3.2 2.9 1.4 1.4 3.3 2.9 4.8 4.9 2.6 2.6 3.0 4.9 7.2 7.1 7.5 8.1 6.0 7.1 4.7 6.2 6.1 7.7 4.8 5.5 9.8 12.0 8.3 9.4 3.7 1.9 2.3 0.8 1.4 1.7 0.6 0.7 0.6 0.1
0.7 0.7 0.7 0.7 0.6 1.2 0.7 0.8 1.0 1.3 1.3 2.2 3.8 3.7 5.3 4.0 6.1 8.2 10.2 11.2 12.4 9.4 6.0 8.7 9.3 11.3 12.0 7.2 12.0 8.2 8.7 9.4 9.7 3.1 4.0 4.1 4.1 3.7
0.2 0.3 0.2 0.5 1.3 1.2 1.8 1.6 1.6 1.1 1.6 1.5 1.4 0.8 2.0 1.8 1.5 2.1 4.2 7.6 9.1 9.6 8.0 10.4 9.7 11.3 17.5 19.6 17.9 14.7 12.0 15.1 13.7 12.0 8.7 8.6 5.7 4.8
0.1 0.1 0.1 2.4 2.2 1.2 0.9 1.0 1.6 1.8 1.3 1.0 0.9 1.8 1.2 1.4 1.7 1.3 2.1 3.9 4.7 4.1 6.0 14.1 17.1 15.8 19.2 17.2 13.8 11.0 10.3 11.7 13.0 9.3 8.2 8.5 6.5 4.2
6.0 6.7 6.5 3.8 5.3 3.6 3.0 4.0 4.0 5.1 4.9 3.4 3.1 4.5 10.9 7.0 7.9 7.7 9.4 9.7 8.4 9.9 10.5 10.2 13.2 12.9 12.5 11.7 9.1 7.3 5.6 5.9 5.9 8.0 10.4 8.3 8.3 11.1
10.2 10.1 9.5 9.3 10.2 9.9 11.0 10.9 10.9 12.5 12.5 15.9 22.9 21.5 20.0 17.2 15.2 12.8 10.9 10.3 11.1 7.9 10.0 10.6 10.6 9.8 9.3 11.1 9.1 6.3 8.5 5.7 3.9 4.2 7.2 8.8 10.4 10.4
5.1 5.1 5.5 6.2 6.0 10.3 12.1 9.2 12.5 20.2 21.3 22.4 21.4 21.4 19.5 17.9 16.8 16.4 14.8 15.4 15.2 13.8 13.6 13.4 13.1 14.0 14.9 13.7 12.9 11.3 9.8 10.0 7.4 8.3 10.1 12.2 14.1 13.8
6.7 12.9 17.1 11.4 14.9 16.9 16.0 16.3 16.1 16.4 16.1 15.7 14.9 14.4 12.7 12.1 11.6 10.8 11.0 10.2 10.6 8.9 8.8 10.4 9.9 10.3 9.8 10.3 11.7 10.1 9.6 9.4 9.4 11.2 9.2 12.4 14.1 14.0
14.6 14.6 14.5 14.1 13.4 12.8 12.7 11.9 10.1 10.0 8.9 8.1 7.3 6.6 6.6 6.2 5.5 4.7 4.7 5.4 5.6 4.7 4.6 5.1 7.1 6.7 6.7 6.2 6.6 8.5 7.0 6.6 6.5 6.7 6.8 9.8 11.7 14.9
10.6 8.1 9.7 9.0 7.6 6.5 5.9 5.5 5.4 4.6 3.2 3.6 3.8 3.1 2.1 1.7 1.9 1.8 1.5 1.3 1.6 1.4 1.6 2.8 3.5 5.3 6.4 6.0 4.5 3.4 6.3 4.9 4.4 4.7 4.0 6.1 9.1 10.2
5.2 4.8 5.0 4.1 3.1 2.7 3.0 2.8 2.7 1.6 1.8 1.0 1.3 1.2 1.5 1.9 1.7 1.2 0.9 1.3 1.1 0.6 0.6 0.5 0.6 1.7 4.9 7.4 6.8 2.4 2.5 6.5 4.3 3.5 3.3 4.4 3.9 5.4
3.4 3.3 3.0 3.0 3.1 2.7 2.6 2.7 2.9 2.9 1.8 3.3 2.6 3.1 3.3 3.4 2.7 2.0 2.6 2.0 1.9 1.7 1.1 0.3 0.1 0.8 1.5 2.4 5.0 2.8 1.6 1.5 1.8 2.2 3.6 4.0 2.9 4.0
2.9 2.7 1.7 2.4 2.1 1.9 2.4 2.4 2.5 2.1 2.3 2.7 2.2 1.6 2.0 2.0 2.2 1.5 1.6 1.7 1.2 1.3 0.6 0.3 0.3 0.9 1.7 2.3 2.8 2.7 1.5 2.1 0.9 1.1 2.1 3.2 6.1 7.7
2.2 1.5 1.6 1.6 1.5 1.6 1.6 1.8 1.7 1.6 1.8 2.6 2.2 1.8 1.9 2.2 1.7 1.7 1.3 1.3 1.3 0.9 0.7 1.1 1.2 1.1 1.3 0.9 1.2 3.0 1.5 2.2 1.4 2.4 2.7 1.7 2.9 2.1